Location: Olsztyn
(53.7767°N, 20.4765°E)
Time: 14:57:03
(UTC+02:00)

Tiros 1 - All Passes

Search period start: 14 July 2024 00:00
Search period end: 24 July 2024 00:00
Orbit: 624 x 656 km, 48.4° (Epoch: 13 July)

Date Brightness Start Highest point End Pass type
(mag) Time Alt. Az. Time Alt. Az. Time Alt. Az.
14 Jul - 16:55:55 10° SW 16:59:50 27° SSE 17:03:44 10° E daylight
14 Jul - 18:36:54 10° WSW 18:41:17 43° S 18:45:38 10° ESE daylight
14 Jul - 20:18:37 10° W 20:22:47 34° SSW 20:26:57 10° SE daylight
14 Jul - 22:01:17 10° WSW 22:03:56 15° SW 22:06:34 10° S visible
15 Jul - 15:39:11 10° S 15:42:10 17° SSE 15:45:08 10° ESE daylight
15 Jul - 17:19:08 10° SW 17:23:23 36° SSE 17:27:36 10° E daylight
15 Jul - 19:00:33 10° WSW 19:04:55 42° S 19:09:15 10° ESE daylight
15 Jul - 20:42:31 10° W 20:46:18 25° SSW 20:50:04 10° SSE daylight
16 Jul - 16:01:45 10° SSW 16:05:34 26° SSE 16:09:23 10° E daylight
16 Jul - 17:42:36 10° WSW 17:46:59 42° S 17:51:20 10° ESE daylight
16 Jul - 19:24:17 10° W 19:28:31 36° SSW 19:32:43 10° SE daylight
16 Jul - 21:06:46 10° WSW 21:09:42 17° SW 21:12:38 10° S daylight
17 Jul - 14:45:12 10° S 14:47:55 15° SE 14:50:38 10° ESE daylight
17 Jul - 16:24:52 10° SW 16:29:04 35° SSE 16:33:16 10° E daylight
17 Jul - 18:06:13 10° WSW 18:10:36 43° S 18:14:58 10° ESE daylight
17 Jul - 19:48:08 10° W 19:52:02 27° SSW 19:55:54 10° SE daylight
18 Jul - 15:07:34 10° SSW 15:11:17 24° SSE 15:15:00 10° E daylight
18 Jul - 16:48:17 10° WSW 16:52:40 41° S 16:57:00 10° ESE daylight
18 Jul - 18:29:56 10° W 18:34:12 38° SSW 18:38:28 10° SE daylight
18 Jul - 20:12:16 10° WSW 20:15:27 18° SSW 20:18:36 10° SSE daylight
19 Jul - 13:51:16 10° S 13:53:40 14° SE 13:56:04 10° ESE daylight
19 Jul - 15:30:36 10° SW 15:34:46 33° SSE 15:38:55 10° E daylight
19 Jul - 17:11:53 10° WSW 17:16:17 43° S 17:20:40 10° ESE daylight
19 Jul - 18:53:45 10° W 18:57:44 29° SSW 19:01:43 10° SE daylight
19 Jul - 20:37:32 10° SW 20:38:43 11° SW 20:39:54 10° SSW daylight
20 Jul - 14:13:24 10° SSW 14:17:00 22° SSE 14:20:35 10° E daylight
20 Jul - 15:53:58 10° WSW 15:58:21 40° S 16:02:41 10° ESE daylight
20 Jul - 17:35:34 10° W 17:39:54 39° S 17:44:11 10° ESE daylight
20 Jul - 19:17:48 10° WSW 19:21:10 20° SSW 19:24:32 10° SSE daylight
21 Jul - 12:57:25 10° SSE 12:59:24 13° SE 13:01:24 10° ESE daylight
21 Jul - 14:36:20 10° SW 14:40:27 31° SSE 14:44:33 10° E daylight
21 Jul - 16:17:31 10° WSW 16:21:57 44° S 16:26:20 10° ESE daylight
21 Jul - 17:59:20 10° W 18:03:26 31° SSW 18:07:30 10° SE daylight
21 Jul - 19:42:34 10° WSW 19:44:28 12° SW 19:46:21 10° SSW daylight
22 Jul - 13:19:15 10° SSW 13:22:42 21° SSE 13:26:09 10° ESE daylight
22 Jul - 14:59:38 10° WSW 15:04:01 39° S 15:08:20 10° E daylight
22 Jul - 16:41:11 10° WSW 16:45:33 41° S 16:49:53 10° ESE daylight
22 Jul - 18:23:19 10° W 18:26:53 22° SSW 18:30:25 10° SSE daylight
23 Jul - 12:03:44 10° SSE 12:05:08 11° SE 12:06:33 10° ESE daylight
23 Jul - 13:42:04 10° SW 13:46:08 29° SSE 13:50:10 10° E daylight
23 Jul - 15:23:10 10° WSW 15:27:36 44° S 15:32:01 10° ESE daylight
23 Jul - 17:04:57 10° W 17:09:07 33° SSW 17:13:15 10° SE daylight
23 Jul - 18:47:50 10° WSW 18:50:12 14° SW 18:52:32 10° S daylight
